ASTROSAT

Last updated on Thu Jul 03 2025 00:03:32 GMT+0000 (Coordinated Universal Time)

1 40930U 15052A 25183.48989112 .00001447 00000+0 97570-4 0 9997 2 40930 5.9957 150.5471 0007610 83.5970 276.5024 14.81466190527866
UTC large
Height (km)
Speed (km/s)
/
Latitude / Longitude
Inclination (degrees)
Orbital Period (minutes)
Azimuth
Elevation
Range (km)
Doppler Factor

Next 0 passes for location: London (51.5072 / 0.1276)

Sorry there are no passes over London.